Location: Newark
(37.8333°N, 119.5000°W)
Time: 19:09:58
(UTC+00:00)

Tiros 1 despin weight - Pass Details

Date: 19 August 2019
Orbit: 594 x 643 km, 48.2° (Epoch: 17 October)

Event Time Altitude Azimuth Distance (km) Brightness Sun altitude
Rises 09:12:44 0° 254° (WSW) 2,836 - -36.7°
Reaches altitude 10° 09:15:05 10° 260° (W) 1,942 - -36.5°
Maximum altitude 09:19:22 46° 334° (NNW) 825 - -36.2°
Exits shadow 09:22:39 17° 43° (NE) 1,583 ? -35.9°
Drops below altitude 10° 09:23:45 10° 48° (NE) 1,978 ? -35.8°
Sets 09:26:09 0° 55° (NE) 2,894 ? -35.6°
